This demonstration page uses our WeatherBlox Daily Observations layout. Learn more.

41.55636, -103.73856

Hourly Observations for August 31, 2019

Temp ( °F °C ) Dew Point ( °F °C ) Humidity (%) Winds ( mph kmh ) Pressure ( in mb ) Visibility ( mi km ) Precip ( " mm )
12:58 am 00:58 Partly Cloudy 68 19.9 58 14.3 70 70 SSE 16 26 30.02 1017 10 16.0934 0.06 1.524
1:58 am 01:58 Mostly Cloudy 67 19.5 58 14.6 73 73 SSE 20 31 30 1016 10 16.0934 0 0
2:58 am 02:58 Mostly Cloudy 67 19.2 59 15 77 77 S 21 33 30.04 1017 10 16.0934 0 0
3:58 am 03:58 Mostly Cloudy with Heavy Thunderstorms 62 16.4 53 11.9 75 75 ENE 10 17 30.13 1020 8 12.87472 0.87 22.098
4:58 am 04:58 Partly Cloudy 61 16.3 57 13.7 85 85 SE 12 19 30.12 1020 10 16.0934 0.01 0.254
5:58 am 05:58 Mostly Clear 64 18 60 15.8 87 87 SSE 13 20 30.07 1018 10 16.0934 0 0
6:58 am 06:58 Mostly Cloudy 64 17.6 61 15.9 90 90 S 13 20 30.05 1018 10 16.0934 0 0
7:58 am 07:58 Mostly Cloudy 63 17 59 15.2 89 89 SW 5 7 30.05 1018 10 16.0934 0 0
8:58 am 08:58 Mostly Cloudy 62 16.7 59 15.1 90 90 SW 10 17 30.03 1017 10 16.0934 0 0
9:58 am 09:58 Mostly Clear 61 16.1 58 14.4 90 90 WSW 6 9 30.04 1017 10 16.0934 0 0
10:58 am 10:58 Clear 61 16 58 14.6 91 91 WSW 5 7 30.03 1017 10 16.0934 0 0
11:58 am 11:58 Clear 60 15.3 58 14.4 94 94 Calm 30.04 1017 10 16.0934 0 0
12:58 pm 12:58 Sunny 60 15.4 58 14.4 94 94 E 7 11 30.06 1018 9 14.48406 0 0
1:58 pm 13:58 Mostly Cloudy with Fog 60 15.6 59 14.8 95 95 ENE 5 7 30.08 1019 0.25 0.402335 0 0
2:58 pm 14:58 Partly Cloudy with Patchy Fog 65 18.1 60 15.5 85 85 Calm 30.08 1019 10 16.0934 0 0
3:58 pm 15:58 Sunny 68 20 60 15.6 76 76 NNW 6 9 30.09 1019 10 16.0934 0 0
4:58 pm 16:58 Sunny 71 21.9 61 16.3 71 71 NNE 3 6 30.09 1019 10 16.0934 0 0
5:58 pm 17:58 Sunny 75 23.8 62 16.4 63 63 NE 6 9 30.08 1019 10 16.0934 0 0
6:58 pm 18:58 Sunny 77 24.9 58 14.4 52 52 ENE 3 6 30.07 1018 10 16.0934 0 0
7:58 pm 19:58 Sunny 78 25.8 56 13.1 45 45 ESE 6 9 30.05 1018 10 16.0934 0 0
8:58 pm 20:58 Sunny 81 27.4 56 13.1 41 41 E 9 15 30.02 1017 10 16.0934 0 0
9:58 pm 21:58 Sunny 81 27.2 56 13.2 42 42 ESE 9 15 30.01 1016 10 16.0934 0 0
10:58 pm 22:58 Sunny 81 27.3 50 10.2 34 34 E 13 20 29.99 1016 10 16.0934 0 0
11:58 pm 23:58 Sunny 79 26 58 14.5 49 49 E 13 20 30.01 1016 10 16.0934 0 0

Powered by AerisWeather